Theta_e
297 304 309 312 315 316 316 316 317 315 313 312 312 314 314 313 311 309 307 305 302 301 300 302 302 302 302 301 301 301 300 300 297 293 296 297 298 298 298 297 296 295 294
293 297 299 304 311 314 316 316 316 316 315 316 314 312 313 310 309 306 305 305 305 302 301 300 301 301 301 301 300 300 300 299 299 294 294 295 296 297 297 296 295 294 293
289 291 293 296 301 304 308 312 313 315 315 314 313 312 313 313 310 308 307 308 306 305 306 302 302 300 300 300 300 299 299 298 298 297 292 291 292 294 294 295 294 293 292
286 287 288 291 294 298 301 305 307 309 311 312 311 312 310 309 311 309 307 306 308 305 305 304 304 301 301 301 299 299 299 298 296 296 293 291 291 291 292 292 291 291 291
282 284 285 288 292 295 296 298 301 304 306 306 308 309 310 306 311 308 307 306 305 305 305 307 305 304 304 302 301 299 298 297 295 295 292 290 290 289 289 291 291 291 290
281 281 283 285 288 289 292 293 295 297 299 301 302 304 303 304 305 305 305 306 305 304 301 301 303 302 301 302 302 301 301 298 294 294 293 292 292 292 292 291 290 288 288
279 280 281 283 284 285 288 290 291 292 294 296 297 299 300 301 302 302 301 302 302 301 301 302 301 300 301 300 299 298 299 298 299 298 294 293 293 294 293 290 290 289 288
277 277 279 281 282 283 285 285 287 288 290 291 293 294 295 296 297 298 300 300 300 301 299 302 300 300 300 299 297 296 296 296 295 296 295 295 294 294 292 292 290 289 288
276 276 277 279 280 281 282 283 284 285 287 288 289 291 292 293 294 295 295 296 296 297 297 299 299 299 299 298 296 295 294 294 293 293 294 294 293 292 291 291 291 289 284
275 276 278 279 279 280 281 282 283 284 284 286 286 287 289 290 292 293 293 294 294 294 295 295 296 296 297 297 296 295 292 292 292 291 291 291 291 291 292 293 293 287 285
276 277 277 278 278 279 280 280 282 283 283 284 285 285 287 288 289 291 292 293 293 293 293 293 294 293 294 294 293 293 293 292 290 290 290 290 291 291 290 289 289 289 286
275 276 277 278 278 278 279 279 280 281 281 281 283 284 284 287 289 290 290 291 292 292 291 291 292 292 292 292 291 291 291 290 289 288 289 288 288 287 288 287 286 286 285
274 274 275 276 277 277 278 278 278 279 279 279 279 280 281 283 286 288 289 290 290 290 290 290 290 290 290 290 290 290 290 289 288 287 287 286 287 287 286 286 285 285 284
272 272 273 274 276 276 277 277 278 278 279 279 279 279 280 281 283 285 286 287 287 288 288 288 288 288 289 289 290 289 289 288 287 287 286 286 286 286 286 285 284 284 283
271 271 272 272 273 275 276 276 277 279 280 280 280 280 280 280 281 283 284 285 286 286 286 286 286 287 287 288 287 287 287 287 286 286 286 285 285 285 284 284 284 283 282
270 270 270 270 271 273 274 276 277 277 279 280 281 280 281 281 282 282 283 285 285 285 285 285 286 286 286 286 285 285 286 286 286 285 285 284 284 283 283 282 283 282 281
270 269 269 270 270 271 272 272 273 276 276 278 278 279 280 281 282 282 283 284 285 285 285 285 285 285 285 285 285 284 284 285 285 284 284 283 283 283 282 282 281 281 281
269 268 269 269 270 271 271 272 272 272 273 275 276 277 278 279 281 283 283 283 284 285 285 284 284 284 284 284 284 284 284 284 284 284 283 283 283 282 281 281 281 280 280
269 268 268 268 268 270 270 271 272 272 273 273 275 276 277 280 281 282 283 284 284 284 284 283 284 284 284 284 284 284 284 284 284 283 283 283 283 283 282 281 281 280 279
268 268 267 267 267 268 270 270 271 271 272 273 273 274 275 278 279 281 281 282 283 283 283 283 283 283 283 283 283 283 283 283 283 283 283 283 283 283 282 280 280 279 278
268 268 267 267 267 267 267 269 269 270 270 272 273 274 275 276 277 278 280 281 281 281 282 282 282 282 281 281 281 281 281 281 282 282 282 282 281 280 280 279 279 278 276
267 267 267 267 266 267 267 267 268 268 269 270 272 272 272 274 276 277 278 279 280 280 280 281 281 281 281 281 281 281 281 281 280 280 280 279 278 277 276 276 275 275 274
266 266 265 265 265 266 266 267 267 268 268 269 270 271 272 273 274 276 277 278 279 279 280 280 280 280 280 280 280 281 280 279 277 277 276 276 276 276 276 276 275 274 273
265 265 265 265 264 265 265 266 266 267 268 268 268 269 270 271 273 274 275 276 278 279 279 280 280 279 279 279 278 277 277 277 276 276 277 277 277 276 276 275 274 273 272
265 265 264 264 264 264 264 265 265 266 267 267 268 268 269 270 271 272 273 274 275 276 278 279 279 279 279 279 279 279 278 278 278 277 277 277 277 276 275 274 273 271 271
265 265 265 265 264 265 264 264 265 265 265 266 267 268 268 268 270 270 271 273 274 274 275 277 278 278 278 279 279 279 279 279 278 278 277 276 275 274 273 273 271 271 269
Wind_Speed
19 20 17 20 27 29 27 27 25 25 26 30 32 31 30 34 34 37 36 35 32 31 33 39 40 36 32 30 25 21 18 16 8 7 10 15 17 21 21 20 19 18 17
24 26 23 21 25 24 22 20 21 24 25 24 25 27 30 32 34 36 36 33 33 33 32 31 35 35 33 31 29 26 23 21 16 10 14 15 15 20 21 20 19 17 16
23 25 28 26 26 22 17 16 21 24 25 26 25 29 33 30 30 32 32 33 34 33 36 36 34 33 33 31 30 29 26 24 21 14 14 14 17 18 20 21 19 17 15
24 27 30 28 26 23 18 12 10 14 19 21 24 26 29 32 31 31 32 33 33 37 34 33 32 32 31 31 30 31 29 26 23 19 14 12 14 14 19 19 17 18 16
28 30 27 26 25 22 20 17 11 6 7 13 18 20 21 26 27 30 31 31 32 31 31 31 33 36 29 28 27 28 27 29 27 23 13 10 12 11 20 18 18 14 14
28 27 27 27 26 24 21 18 16 14 8 2 7 12 17 20 20 25 31 30 30 31 31 29 29 28 25 23 23 25 27 31 27 24 19 13 22 20 18 21 18 10 4
26 26 29 29 29 25 20 18 18 15 12 10 5 2 6 10 13 13 19 22 26 26 26 23 23 23 20 21 21 22 23 25 29 33 28 26 24 27 23 21 19 14 6
26 28 29 29 29 25 23 21 17 15 14 11 9 7 4 3 4 8 9 13 15 18 25 21 21 22 21 22 23 24 24 25 27 28 28 27 23 18 20 18 18 13 7
23 25 25 27 26 24 25 22 20 16 14 12 9 7 4 3 3 5 9 10 14 15 17 14 19 19 18 20 22 23 24 25 24 25 23 20 18 16 18 19 18 17 6
22 24 26 25 26 26 22 21 18 16 14 12 11 9 5 2 1 5 8 11 11 11 11 13 14 17 17 18 22 25 25 25 25 23 18 19 20 19 20 22 24 21 8
20 22 25 25 26 23 20 20 17 16 15 15 13 12 10 7 4 4 7 11 13 13 14 14 15 15 16 18 22 26 27 24 24 27 27 23 22 23 23 20 18 20 17
20 23 24 23 23 21 21 20 19 18 18 17 16 14 13 12 9 4 8 8 12 13 13 13 13 15 17 17 21 21 20 23 29 27 27 24 25 24 21 18 15 14 11
19 20 19 18 18 18 18 19 20 19 20 19 18 18 17 12 11 12 7 5 6 7 6 7 9 11 14 16 19 24 22 26 25 24 22 22 26 24 21 18 15 13 11
15 16 16 17 17 16 15 15 16 18 17 15 17 17 17 13 11 9 7 3 2 2 4 5 6 8 12 17 20 23 27 26 26 23 23 26 24 23 23 23 20 18 14
16 16 16 15 15 15 14 12 12 11 10 10 11 10 13 14 11 10 5 3 1 2 4 5 7 10 15 19 21 26 25 23 22 23 24 25 25 25 25 22 19 17 10
15 16 16 14 14 14 14 14 7 8 8 8 9 7 9 8 8 9 6 3 3 4 6 8 10 14 15 18 21 22 20 19 19 20 21 24 26 24 23 19 18 17 15
11 12 12 12 12 13 14 14 15 11 6 5 8 8 9 9 10 6 6 6 5 7 7 12 14 17 17 20 21 22 20 20 19 19 22 24 26 24 24 21 20 17 14
8 9 11 13 12 11 10 9 10 11 14 14 8 8 9 11 14 5 3 4 6 12 9 12 13 15 16 18 21 22 20 20 19 21 23 24 25 26 23 21 19 18 16
11 10 10 11 10 10 10 8 7 8 10 11 12 6 8 7 7 5 5 9 7 10 11 11 11 13 14 16 18 20 22 22 22 21 23 23 23 24 22 20 18 16 16
11 10 10 11 11 10 9 9 7 6 7 8 9 9 9 8 9 8 6 3 7 9 11 10 10 11 13 14 17 19 22 22 22 21 21 22 22 22 21 20 19 18 14
11 10 10 10 9 9 9 8 9 9 8 7 6 5 7 7 6 6 3 6 5 6 9 9 10 11 12 14 16 20 22 23 23 24 24 22 20 19 18 18 17 14 14
12 12 12 11 10 8 7 7 8 9 8 8 7 4 4 3 1 1 3 4 5 5 5 8 10 12 13 16 19 21 22 22 22 23 23 23 22 21 20 19 16 15 13
14 14 12 11 10 9 9 8 8 8 9 8 8 7 4 3 2 3 4 3 5 6 8 9 12 13 13 15 17 19 22 22 22 24 26 24 22 20 19 18 16 15 13
13 13 12 10 9 9 10 11 10 9 9 10 9 9 7 6 5 5 5 7 6 6 8 11 13 15 16 16 15 16 19 20 21 21 21 22 20 18 16 15 14 13 14
12 11 11 11 12 12 11 11 12 12 13 12 11 9 8 8 7 7 8 8 8 9 9 12 16 19 19 19 19 19 20 20 20 20 18 16 16 16 15 15 15 16 15
10 11 12 12 13 12 12 12 11 11 12 12 13 13 11 10 9 9 9 9 11 11 13 15 17 18 19 19 18 18 18 18 18 17 15 15 16 17 17 16 16 15 16
Wind_Direction
85 117 137 148 160 164 164 174 191 190 196 196 191 192 201 206 210 209 216 217 220 217 218 216 216 218 217 215 215 214 214 216 187 195 207 208 201 207 212 220 233 237 233
76 88 96 105 120 142 157 175 186 195 200 204 204 195 200 209 208 209 209 215 213 220 225 228 222 218 219 220 217 216 220 220 205 176 197 202 203 207 215 221 229 234 237
62 70 73 77 86 90 116 156 183 194 197 201 202 200 200 207 219 223 225 225 226 227 228 228 230 223 218 218 219 216 216 217 214 199 184 198 206 204 210 221 228 232 237
57 59 58 59 67 68 71 95 151 184 196 202 206 207 211 206 207 215 219 222 229 231 230 229 231 234 226 221 218 218 214 210 208 203 186 189 202 210 212 216 218 224 230
54 54 53 62 64 65 62 60 68 122 185 215 212 214 221 221 213 216 216 218 221 226 233 233 237 235 234 232 224 221 217 209 202 195 182 181 188 189 205 214 219 222 229
53 53 55 59 62 59 57 54 57 57 65 152 214 224 219 225 227 227 223 219 222 221 222 219 225 232 232 236 236 235 230 214 201 199 198 197 204 209 208 205 200 194 221
52 50 52 56 56 54 55 53 48 48 55 58 67 187 229 233 233 230 230 229 225 227 230 224 225 228 227 228 230 232 234 231 233 226 209 213 214 220 215 199 193 189 180
48 47 47 53 55 54 55 51 47 41 45 50 47 61 62 138 177 204 211 215 226 233 232 223 228 226 223 221 221 218 222 225 223 228 233 234 233 230 218 214 201 188 199
38 43 48 54 55 54 51 47 44 42 39 38 36 43 52 79 129 179 193 196 208 215 225 218 225 224 225 221 216 218 220 219 222 225 227 225 218 203 192 177 183 185 186
28 40 47 50 51 50 49 47 44 44 44 45 40 30 24 12 136 175 203 206 203 209 217 219 220 222 221 217 218 216 207 211 208 204 205 197 197 202 213 220 213 181 149
42 45 47 47 47 46 50 48 49 49 48 46 47 40 34 18 338 236 201 217 213 208 213 215 217 217 221 222 221 218 215 214 198 190 182 182 188 193 197 202 206 205 181
38 42 42 41 42 42 45 45 45 50 50 42 39 38 35 36 32 315 227 217 224 221 217 223 226 221 221 218 214 217 208 200 185 179 179 178 184 187 188 184 183 186 188
33 38 40 45 43 41 40 39 40 40 45 39 34 26 20 21 31 55 79 156 191 210 220 224 224 219 216 218 209 210 194 188 176 173 173 173 184 185 177 174 179 184 181
34 33 31 31 32 35 41 40 39 32 31 24 18 15 10 17 23 33 32 50 138 207 206 210 213 211 207 207 199 194 186 188 181 175 171 183 181 175 177 179 169 167 160
28 27 25 25 23 21 28 26 27 32 18 6 2 358 358 0 357 347 350 346 302 225 214 189 183 183 164 164 161 173 182 183 178 177 177 173 173 171 173 176 176 172 161
23 20 15 11 12 16 14 13 36 19 15 18 18 358 352 346 334 335 314 282 249 179 173 170 166 170 156 154 156 168 175 176 177 176 177 175 168 169 168 172 173 169 157
8 5 7 7 6 2 4 8 2 6 12 11 359 358 351 334 339 322 309 264 222 198 192 182 180 174 166 166 166 169 166 177 173 172 171 167 165 165 164 164 163 157 155
356 356 357 355 351 351 349 345 345 349 345 348 357 345 343 346 343 305 284 235 251 200 205 190 181 181 178 175 175 175 173 169 171 169 168 169 168 165 161 162 163 160 159
347 344 339 336 334 335 332 330 325 327 331 331 341 350 345 358 356 354 323 213 216 193 192 189 191 190 188 186 184 180 175 172 171 170 169 169 173 172 169 168 162 163 164
330 328 323 322 325 324 321 316 321 309 316 327 333 345 353 2 25 34 46 165 189 192 197 192 193 191 189 187 184 179 174 173 172 173 172 167 162 165 163 162 163 163 166
326 328 325 325 326 320 306 307 309 310 306 307 318 328 336 323 338 31 72 103 119 149 166 183 184 185 183 181 180 178 176 171 168 163 159 159 158 157 160 160 159 162 159
314 319 318 316 314 312 308 293 291 298 301 297 300 303 307 294 271 255 84 137 141 142 160 183 185 184 180 175 171 167 165 163 161 159 155 153 152 151 152 152 153 155 158
301 305 307 307 305 300 292 290 287 285 289 288 290 287 279 262 239 207 197 140 147 157 145 157 160 161 167 170 171 170 163 159 160 159 154 152 152 153 155 156 159 157 159
291 293 293 293 291 291 287 281 275 273 276 278 281 277 265 255 234 214 202 198 182 150 164 170 158 151 145 144 149 158 160 157 155 158 158 156 155 157 157 160 159 160 157
288 286 283 283 285 289 290 282 280 277 270 265 262 264 260 247 236 217 204 196 194 184 159 165 165 156 151 150 151 151 153 154 155 156 157 159 163 167 168 167 165 161 159
282 284 284 285 283 284 284 284 281 279 276 273 265 257 251 241 231 220 210 199 194 188 180 165 161 159 157 157 159 161 164 166 165 164 164 172 175 172 170 167 163 161 159